Wind_Speed
9 8 7 6 6 6 7 7 8 10 12 14 16 18 19 20 21 22 22 22 20 18 17 16 15 16 16 17 19 20 21 22 24 25 26 27 29 30 30 31 32 33 33 34
7 6 6 5 4 5 6 6 6 8 9 9 10 13 16 17 19 19 18 18 17 15 14 14 14 16 17 18 19 20 21 23 25 26 28 29 30 31 32 32 32 33 33 34
7 6 5 5 4 5 6 5 5 5 5 7 8 10 12 12 13 12 13 13 13 13 12 13 14 15 17 18 19 21 23 25 27 28 30 31 32 33 33 33 34 34 34 34
6 6 5 5 4 5 5 5 5 5 4 4 5 6 6 6 7 6 6 7 8 9 11 13 14 16 17 19 21 22 24 26 27 28 30 31 32 33 33 34 34 35 34 34
7 6 5 5 5 4 4 4 4 4 3 3 5 7 5 3 1 2 2 4 5 7 9 12 14 16 18 19 21 22 23 25 27 28 29 30 30 31 32 33 33 34 34 34
7 6 5 5 5 5 4 4 4 3 3 3 4 6 7 6 5 2 1 3 5 8 10 12 14 16 18 19 20 22 23 25 26 27 28 28 29 29 30 31 31 32 33 33
7 6 5 5 5 4 5 5 3 2 2 2 3 4 6 5 4 1 2 5 7 9 11 13 15 16 18 19 21 22 24 25 27 27 28 29 29 29 30 30 31 32 33 34
6 6 5 5 5 5 5 6 6 5 4 2 2 3 5 5 4 4 5 7 9 11 12 14 15 16 18 20 22 23 25 27 28 29 29 29 30 30 30 31 31 32 33 34
7 6 5 5 5 5 6 7 7 6 5 4 4 4 5 6 6 6 7 9 10 12 13 14 15 17 19 21 23 25 26 28 29 30 30 31 31 31 31 32 32 33 34 34
8 7 6 6 6 6 7 8 8 7 6 4 3 4 5 7 8 9 10 11 11 13 14 15 17 19 21 24 26 27 29 30 31 31 31 32 32 32 33 33 34 34 35 35
8 7 6 7 7 8 8 9 9 8 7 6 4 5 6 8 9 10 11 12 13 15 16 17 19 22 24 26 28 30 31 31 32 32 33 33 33 34 34 35 35 36 36 36
8 7 7 8 8 8 9 10 9 8 7 7 7 7 8 9 11 12 13 14 15 16 18 20 22 24 26 28 30 31 31 32 33 33 34 34 35 35 36 36 37 37 37 37
9 8 8 8 9 9 10 11 11 9 8 8 10 10 11 12 13 14 15 16 18 19 21 22 23 25 27 29 31 32 32 33 34 34 35 36 36 37 38 38 38 39 39 39
10 10 9 9 10 11 11 12 12 11 10 11 12 13 13 14 15 16 18 19 20 21 22 24 25 26 28 31 32 33 34 34 35 35 36 37 38 39 40 40 40 41 41 40
11 11 11 11 11 11 11 12 12 12 12 12 13 14 15 16 18 19 20 21 21 22 23 24 26 28 30 32 33 34 35 35 36 37 38 39 40 41 41 42 42 42 42 41
12 12 12 12 13 12 11 12 12 12 12 12 14 16 17 18 20 21 21 21 21 22 24 25 27 29 32 33 34 35 35 36 37 38 39 40 41 42 43 43 43 43 43 42
12 12 13 12 13 12 12 11 11 11 12 14 16 18 19 20 21 21 21 21 22 23 25 27 29 31 33 34 35 36 36 37 38 39 40 41 42 43 44 44 44 44 44 43
12 12 12 11 11 11 10 10 10 11 13 15 17 19 21 21 22 22 21 22 23 24 26 29 31 33 34 35 36 36 37 38 39 40 42 43 43 44 45 45 45 45 44 44
13 13 12 11 10 9 9 9 10 12 14 16 18 20 21 21 22 22 22 23 24 26 28 30 32 34 35 36 36 37 38 39 40 42 43 44 44 45 45 45 45 45 45 44
13 13 13 13 12 10 10 11 12 14 15 17 19 21 21 21 22 22 23 24 25 27 29 31 33 34 35 36 36 37 39 40 41 43 43 44 45 46 46 46 46 45 45 44
16 16 15 15 15 12 13 13 14 16 18 19 20 21 22 22 23 24 24 25 27 28 30 32 34 35 35 36 37 38 39 41 42 43 45 45 46 46 46 46 46 46 45 44
18 18 18 17 16 16 16 16 17 19 19 21 22 23 23 24 25 25 26 27 29 30 32 33 34 35 35 36 37 39 40 42 43 44 45 46 46 47 47 46 46 45 45 43
21 21 20 19 19 19 19 20 20 21 22 22 23 24 25 26 26 27 28 30 31 32 33 35 35 36 36 37 39 40 42 43 44 45 46 46 47 47 47 46 45 45 44 42
23 24 24 24 23 23 23 23 23 24 24 25 26 26 27 28 28 29 30 32 33 34 35 36 36 36 37 39 41 43 44 45 45 46 47 47 48 47 47 46 45 44 43 42
23 26 27 27 26 26 25 25 26 26 27 27 27 28 28 29 30 31 32 34 35 35 36 36 37 37 38 40 42 44 46 46 47 47 48 48 48 46 46 46 45 44 42 41
25 28 29 29 28 28 27 27 28 28 29 29 29 29 30 31 32 33 34 35 35 36 36 37 37 39 40 41 43 45 47 47 48 48 48 48 47 46 46 45 44 43 42 40
Wind_Direction
350 344 337 319 304 287 279 277 268 266 271 271 270 273 270 267 266 269 270 273 282 286 287 291 295 299 303 305 306 306 307 308 309 309 308 307 305 303 301 299 296 295 293 291
356 354 345 335 314 293 289 288 289 282 282 277 281 285 279 271 270 266 265 268 276 283 288 292 297 301 304 307 309 311 312 313 312 311 310 309 307 305 304 301 299 297 295 293
1 355 347 339 333 317 323 329 341 325 314 298 296 297 291 278 270 262 258 264 274 280 289 297 302 306 310 312 313 314 314 314 313 312 311 309 307 306 304 303 301 299 297 295
2 351 349 349 342 336 336 342 348 350 344 345 343 329 311 281 263 247 244 264 276 281 290 298 304 309 312 314 314 313 313 313 313 311 310 308 306 305 304 303 302 301 299 298
346 339 342 347 349 344 340 348 352 358 5 29 29 19 26 24 158 188 229 271 292 297 301 304 307 309 311 311 312 313 313 314 314 313 311 309 307 306 304 303 302 301 300 298
323 325 335 342 345 348 345 351 350 4 29 47 41 42 51 61 80 114 213 279 291 298 301 304 306 307 308 310 312 314 316 317 317 316 315 314 312 309 307 305 303 302 300 299
314 317 325 329 341 347 352 358 6 5 6 32 36 32 34 37 46 43 290 286 288 295 300 303 305 307 310 314 317 319 321 322 322 321 320 319 317 314 311 310 308 306 304 302
304 304 311 314 324 337 348 358 356 348 346 332 325 338 346 340 329 307 293 290 292 298 302 305 308 312 317 320 323 324 326 328 327 327 326 324 322 320 317 315 313 311 308 306
291 291 294 299 311 323 337 343 345 338 331 321 313 316 312 308 301 293 292 294 299 303 307 310 315 320 324 327 330 330 331 331 330 329 328 326 325 324 322 320 317 315 312 309
286 281 282 287 293 303 315 320 325 325 329 333 322 305 294 284 287 291 296 300 305 309 313 320 324 327 330 333 334 333 333 331 330 330 329 328 327 326 325 323 321 318 315 312
287 282 280 285 290 294 302 305 310 314 317 316 307 300 295 295 299 302 305 309 313 317 323 327 331 333 334 336 335 334 333 332 332 331 330 329 329 328 327 325 324 321 318 314
286 285 282 284 285 286 291 294 300 307 315 317 316 315 307 306 306 307 309 313 319 326 330 333 334 335 336 337 336 335 334 333 333 332 331 331 330 330 329 327 326 323 320 316
285 284 283 278 278 282 286 291 298 304 309 317 320 319 315 313 310 311 314 320 326 331 334 335 335 336 337 337 336 335 334 334 333 333 333 333 332 331 330 329 327 325 322 318
282 282 282 281 281 283 286 288 293 299 306 313 317 317 316 314 314 317 321 325 329 331 332 334 336 336 336 336 336 335 335 334 334 334 334 333 332 331 331 329 328 326 323 320
279 282 283 283 283 282 281 281 286 294 303 308 311 313 315 314 317 321 324 326 327 329 331 334 335 336 336 336 335 335 334 334 334 334 334 334 333 332 331 329 328 326 323 321
275 279 282 286 292 292 289 286 288 292 298 303 306 310 313 315 318 321 323 324 326 328 330 333 334 335 335 335 335 334 334 334 334 334 334 333 333 332 330 329 327 326 323 321
270 273 276 282 289 296 295 295 296 300 300 301 304 308 312 315 317 320 322 323 325 327 330 333 334 334 334 333 333 333 334 333 333 334 333 333 332 331 330 329 327 326 324 321
266 268 272 277 288 299 302 301 303 304 305 303 305 307 311 314 317 319 321 323 326 329 331 332 333 333 332 332 332 332 333 333 333 333 333 332 332 331 330 329 327 326 324 322
266 266 269 276 288 296 299 301 305 305 306 304 306 307 309 312 316 319 321 324 326 329 330 331 331 330 331 331 331 331 332 333 333 332 332 332 332 331 330 329 328 327 325 323
268 268 271 278 288 293 300 301 304 302 305 304 306 306 310 313 316 319 321 323 325 327 327 328 328 329 329 330 331 331 332 332 332 332 332 331 331 331 331 330 328 327 326 325
265 271 275 279 285 292 298 304 305 308 308 306 307 309 312 314 316 318 320 321 323 324 324 325 326 328 329 330 331 331 332 332 332 332 331 331 331 331 331 330 329 328 327 326
264 269 274 279 285 293 297 303 305 306 305 306 309 310 312 313 314 316 317 319 320 321 322 324 325 327 329 330 331 331 330 331 331 330 331 331 331 331 331 330 329 329 329 328
265 270 275 281 286 293 297 301 302 303 304 305 306 308 310 311 312 313 314 316 317 319 321 323 325 326 328 330 331 330 330 330 330 330 330 331 331 331 331 331 330 330 330 329
266 274 277 282 287 291 294 297 298 299 301 302 303 305 307 308 309 310 311 313 315 317 320 322 324 325 326 328 329 330 330 330 329 328 329 330 331 331 331 331 331 331 331 331
267 270 273 277 282 285 287 291 293 295 297 299 300 301 303 304 306 307 309 311 313 315 319 321 323 324 325 326 327 328 329 329 329 328 328 329 331 332 332 332 332 332 332 332
262 265 269 273 277 280 285 288 290 292 293 295 296 298 299 301 304 305 307 310 312 314 317 320 322 323 324 325 326 327 328 328 328 328 328 329 330 331 331 332 333 333 333 333
Height
5864 5863 5860 5859 5859 5858 5857 5857 5856 5856 5855 5855 5854 5853 5853 5852 5852 5853 5853 5853 5854 5854 5853 5853 5852 5851 5850 5849 5847 5846 5844 5842 5840 5838 5836 5833 5831 5829 5826 5824 5822 5820 5818 5816
5865 5863 5861 5860 5859 5858 5857 5856 5856 5855 5854 5853 5851 5850 5848 5847 5847 5847 5848 5849 5850 5850 5849 5849 5849 5848 5847 5846 5844 5842 5840 5837 5835 5833 5830 5827 5825 5822 5819 5817 5814 5811 5809 5807
5864 5863 5861 5860 5859 5858 5857 5856 5855 5854 5852 5851 5850 5848 5845 5843 5843 5843 5844 5846 5847 5848 5847 5847 5847 5846 5844 5842 5841 5838 5836 5833 5830 5827 5824 5821 5818 5815 5812 5809 5806 5803 5801 5799
5864 5863 5861 5860 5859 5858 5857 5856 5855 5854 5852 5851 5849 5847 5844 5841 5841 5841 5842 5844 5845 5846 5846 5845 5845 5843 5841 5839 5837 5835 5832 5829 5826 5822 5819 5815 5812 5808 5805 5801 5798 5795 5792 5790
5864 5863 5861 5860 5859 5858 5857 5856 5855 5854 5853 5851 5849 5846 5845 5841 5840 5842 5843 5844 5844 5845 5845 5844 5843 5841 5839 5837 5834 5832 5828 5825 5821 5818 5814 5810 5806 5802 5798 5794 5791 5787 5784 5781
5864 5862 5861 5860 5859 5858 5857 5857 5855 5854 5853 5852 5850 5848 5846 5843 5843 5843 5843 5844 5844 5844 5843 5842 5841 5839 5837 5834 5831 5828 5824 5820 5816 5812 5808 5804 5799 5795 5791 5787 5784 5780 5776 5773
5863 5862 5861 5860 5859 5858 5857 5857 5856 5854 5853 5853 5851 5849 5848 5846 5845 5844 5844 5844 5844 5843 5842 5841 5839 5837 5834 5831 5827 5824 5820 5815 5810 5806 5801 5797 5793 5788 5784 5780 5776 5772 5768 5764
5862 5862 5861 5859 5859 5857 5856 5856 5856 5855 5853 5852 5851 5849 5849 5847 5845 5844 5844 5844 5843 5842 5840 5838 5836 5834 5830 5827 5823 5818 5814 5809 5804 5799 5795 5790 5786 5781 5777 5772 5768 5764 5759 5755
5861 5861 5860 5859 5858 5857 5856 5855 5855 5854 5852 5851 5850 5850 5848 5846 5845 5844 5843 5842 5841 5840 5838 5835 5833 5829 5826 5822 5817 5813 5808 5803 5798 5793 5788 5784 5779 5774 5769 5765 5760 5755 5751 5746
5860 5859 5859 5858 5857 5856 5855 5854 5853 5852 5851 5850 5849 5848 5847 5845 5844 5843 5842 5840 5839 5837 5834 5831 5828 5824 5820 5816 5811 5807 5802 5797 5792 5787 5782 5777 5772 5767 5762 5757 5752 5747 5742 5737
5858 5858 5857 5856 5855 5854 5854 5853 5852 5851 5850 5849 5848 5849 5846 5844 5842 5841 5839 5837 5835 5833 5830 5826 5823 5819 5814 5810 5806 5801 5796 5791 5786 5781 5776 5771 5765 5760 5755 5749 5744 5738 5733 5728
5856 5855 5854 5854 5853 5853 5852 5851 5851 5850 5849 5847 5846 5848 5843 5842 5840 5838 5836 5834 5831 5828 5824 5821 5817 5813 5809 5805 5800 5795 5791 5786 5781 5775 5770 5764 5759 5753 5747 5741 5736 5730 5724 5719
5854 5854 5853 5852 5853 5852 5850 5849 5848 5848 5847 5845 5844 5845 5841 5839 5836 5834 5832 5829 5826 5823 5819 5816 5812 5808 5804 5800 5795 5790 5785 5780 5775 5769 5763 5757 5752 5746 5740 5733 5727 5721 5715 5709
5852 5851 5851 5850 5849 5848 5847 5846 5845 5845 5843 5842 5841 5839 5837 5835 5833 5830 5827 5824 5821 5818 5814 5811 5807 5803 5799 5795 5790 5785 5780 5774 5769 5763 5757 5751 5745 5738 5732 5725 5719 5712 5706 5700
5849 5849 5847 5847 5846 5845 5844 5843 5842 5841 5840 5839 5837 5835 5834 5831 5828 5826 5823 5819 5816 5813 5810 5807 5803 5799 5794 5789 5784 5779 5774 5768 5762 5756 5750 5744 5737 5731 5724 5717 5710 5703 5696 5690
5846 5845 5845 5844 5842 5841 5840 5839 5838 5837 5836 5835 5833 5832 5829 5827 5824 5821 5818 5815 5812 5809 5806 5802 5798 5794 5789 5784 5779 5773 5768 5762 5756 5750 5743 5737 5730 5723 5716 5709 5702 5694 5687 5680
5843 5842 5842 5841 5840 5839 5838 5836 5835 5834 5833 5831 5829 5828 5824 5822 5819 5816 5814 5811 5808 5805 5801 5797 5793 5788 5784 5778 5773 5767 5762 5756 5750 5743 5737 5730 5723 5715 5708 5700 5693 5685 5678 5671
5839 5839 5838 5838 5838 5836 5837 5833 5832 5831 5829 5827 5825 5823 5820 5817 5815 5812 5810 5807 5803 5800 5796 5792 5788 5783 5778 5773 5767 5761 5756 5749 5743 5736 5730 5723 5715 5708 5700 5692 5684 5676 5669 5661
5836 5836 5835 5835 5834 5833 5833 5831 5829 5828 5826 5823 5821 5818 5816 5813 5810 5808 5805 5802 5798 5795 5791 5787 5783 5778 5773 5767 5761 5755 5749 5743 5737 5730 5723 5715 5708 5700 5692 5684 5676 5668 5660 5651
5832 5832 5832 5832 5831 5830 5830 5828 5826 5825 5822 5819 5816 5813 5811 5808 5806 5804 5800 5797 5793 5790 5786 5782 5777 5772 5767 5761 5755 5749 5743 5737 5730 5723 5716 5708 5700 5692 5684 5676 5668 5659 5651 5642
5829 5828 5828 5827 5826 5826 5825 5823 5822 5821 5818 5815 5811 5809 5806 5803 5801 5799 5795 5792 5788 5784 5781 5776 5771 5766 5761 5755 5749 5743 5737 5731 5724 5716 5709 5701 5693 5685 5676 5668 5659 5651 5642 5634
5823 5823 5823 5822 5821 5822 5820 5818 5817 5814 5812 5809 5806 5803 5801 5798 5795 5792 5790 5786 5783 5779 5775 5770 5765 5760 5755 5749 5743 5737 5731 5724 5717 5710 5702 5694 5686 5677 5669 5660 5651 5642 5634 5625
5817 5818 5817 5817 5818 5816 5813 5812 5810 5808 5806 5803 5801 5798 5795 5792 5789 5786 5783 5780 5776 5773 5768 5764 5759 5754 5748 5743 5737 5731 5724 5717 5710 5702 5695 5687 5678 5669 5661 5652 5644 5635 5626 5618
5812 5811 5810 5810 5810 5809 5807 5806 5804 5802 5800 5797 5795 5792 5789 5786 5783 5780 5777 5773 5769 5765 5761 5757 5752 5747 5741 5736 5730 5724 5717 5710 5703 5695 5687 5679 5671 5662 5653 5645 5636 5628 5619 5611
5807 5805 5803 5803 5803 5802 5801 5799 5797 5795 5793 5791 5789 5786 5783 5780 5777 5774 5770 5766 5762 5758 5754 5749 5744 5739 5734 5729 5723 5717 5710 5703 5696 5688 5680 5672 5663 5655 5646 5638 5629 5621 5612 5604
5799 5797 5796 5796 5796 5794 5793 5792 5790 5788 5786 5784 5781 5779 5776 5773 5770 5766 5763 5759 5754 5750 5746 5741 5736 5732 5727 5721 5715 5709 5702 5695 5688 5680 5672 5664 5656 5648 5640 5632 5623 5613 5606 5598